Retour au catalogue

YAOGAN-35 05B

ActifMilitaireVLEO
NORAD 53761·PAYLOAD·🇨🇳 China

Lancé Sep 6, 2022 depuis Xichang Satellite Launch Center

Loading…

Prochains Passages (prochaines 24 heures)

TLE

FraisSource: Space-Track

Époque: Sep 14, 2026, 21:47 UTC

1 53761U 22109B   26257.90832385  .00016881  00000-0  38498-3 0  9995
2 53761  34.9770  89.5320 0005543 308.5858  51.4366 15.41989948224714

Suivez YAOGAN-35 05B en temps réel avec AllMySat

Download on the App Store